Location: Unspecified
(35.7250°N, 0.0000°E)
Time: 03:56:47
(UTC+00:00)

Vanguard 1 Rocket - Pass Details

Date: 18 June 2019
Orbit: 651 x 4225 km, 34.3° (Epoch: 16 July)

Event Time Altitude Azimuth Distance (km) Brightness Sun altitude
Rises 19:53:03 0° 261° (W) 6,225 12.4 -6.7°
Reaches altitude 10° 19:57:57 10° 261° (W) 4,626 11.7 -7.5°
Maximum altitude 20:09:08 80° 176° (S) 1,256 8.0 -9.4°
Drops below altitude 10° 20:15:01 10° 90° (E) 2,536 9.2 -10.3°
Enters shadow 20:15:53 - 90° (E) 2,857 9.5 -10.4°
Sets 20:17:00 0° 89° (E) 3,287 - -10.6°
